Regional Weather Roundup
Issued by NWS Newport/Morehead, NC

Current Version | Previous Version | Graphics & Text | Print | Product List | Glossary Off
Versions: 1 2 3 4 5 6 7 8 9 10 11 12 13 14 15 16 17 18 19 20 21 22 23 24 25 26 27 28 29 30 31 32 33 34 35 36 37 38 39 40 41 42 43 44 45 46 47 48 49 50

000
ASUS42 KMHX 192313
RWRMHX
WEATHER ROUNDUP FOR EASTERN NORTH CAROLINA
NATIONAL WEATHER SERVICE NEWPORT/MOREHEAD CITY NC
700 PM EDT THU APR 19 2018

NOTE: "FAIR" INDICATES FEW OR NO CLOUDS BELOW 12,000 FEET
WITH NO SIGNIFICANT WEATHER AND/OR OBSTRUCTIONS TO VISIBILITY

NCZ015>017-031-032-045>047-102-103-200000-
NORTH COAST

CITY           SKY/WX    TMP DP  RH WIND       PRES   REMARKS
EDENTON        FAIR      66  37  34 NW16G24   29.95R
ELIZABETH CITY CLOUDY    62  50  64 NE9       29.93R
KITTY HAWK     FAIR      52  43  70 NE6       29.94R
MANTEO         MOCLDY    53  43  68 NE14G20   29.95R

$$

NCZ045>047-081-094-103-104-200000-
CENTRAL COAST

CITY           SKY/WX    TMP DP  RH WIND       PRES   REMARKS
FRISCO         CLOUDY    61  53  75 NE17G28   29.92R

$$

NCZ095-097-098-100-101-200000-
SOUTHERN COAST

CITY           SKY/WX    TMP DP  RH WIND       PRES   REMARKS
BEAUFORT       MOCLDY    70  52  52 N18G24    29.89R
CEDAR ISLAND   NOT AVBL
JACKSONVILLE   MOCLDY    72  43  35 N26G33    29.90R
PINEY ISLAND   NOT AVBL
WILMINGTON     MOCLDY    76  44  32 N14G24    29.89R


$$

NCZ011>013-027>030-043-044-078>080-089-090>093-098-200000-
COASTAL PLAIN

CITY           SKY/WX    TMP DP  RH WIND       PRES   REMARKS
AHOSKIE        FAIR      59  32  35 NW5       29.98R
CLINTON        FAIR      67  38  35 N12G24    29.98R
ELIZABETHTOWN  FAIR      70  38  30 MISG      29.95R
GOLDSBORO      FAIR      64  33  32 NW14G25   29.96R
GREENVILLE     FAIR      63  34  34 N7G17     29.99R
HAVELOCK       NOT AVBL
KENANSVILLE    FAIR      66  37  34 N21G28    29.96R
KINSTON        FAIR      64  34  32 NW21G30   29.96R
NEW BERN       FAIR      65  42  43 N16G26    29.94R
RICHLANDS      FAIR      70  41  34 NW12G25   29.93R
ROCKY MOUNT    FAIR      59  32  36 N17G35    30.00R
WASHINGTON     FAIR      64  35  34 NW10G22   29.96R
WHITEVILLE     FAIR      74  41  29 NW7       29.92R

$$

AMZ130-135-150-152-154-156-158-170-250-252-270-ANZ085-086-088-633-658-670-200000-
MARINE OBSERVATIONS

STATION/POSITION TIME  TEMP    WIND        PRES    WAVE   SWELL
                       AIR SEA DIR/SP/G            HT/PER HT/PER
                 (UTC) (F)     (DEG/KT/KT) (MB)    (FT/S) (FT/S)
CHESAPEAKE LIGHT NOT AVBL
64 E VA BEACH    2250   51 51  360/ 17/ 21 1013.5    5/ 8   3/ 8
DUCK             2248   51 50   20/ 12/ 13 1013.5
2 E DUCK         2300      49                N/A     3/ 4   2/14
OREGON INLET     2242   54 64   20/ 13/ 20 1013.5
13E OREGON INLT  2248      52                N/A     5/ 8   3/ 8
HATTERAS CG      2248   61 64   20/ 26/ 32 1012.8
DIAMOND BUOY     2300   67 68  310/ 19/ 37 1011.8
CAPE LOOKOUT     2300          290/ 12/ 14 1012.6
BEAUFORT LAB     2248   69 65  340/  6/  9 1012.3
30 SE NEW RVR IN 2208   68 66  220/ 19/ 25 1010.4
30 SE NEW RVR IN 2300      66                N/A     9/ 7   2/11
27 SE WRIGHTSVLE 2208   66 65  230/ 21/ 29 1011.2
5 SE WRIGHTSVLE  NOT AVBL
225 S CAPE HAT   2300   73 71  220/ 19/ 25 1014.8
41 SE CHARLESTON 2300   70 68  220/ 17/ 21 1013.6

$$




USA.gov is the U.S. government's official web portal to all federal, state and local government web resources and services.